Home > Weather > Lehrte > Past weeks

Flag for Germany Weather for the Past 2 Weeks in Lehrte, Lower Saxony, Germany

Now
37 °F

Passing clouds.


Feels Like: 33 °F
Forecast: 32 / 42 °F
Wind: 6 mph from East

Location: Hannover

Current Time: Feb 12, 2016 at 6:26:36 PM

Latest Report: Feb 12, 2016 at 5:50 PM


Visibility: N/A

Pressure: 29.50 "Hg

Humidity: 87%

Dew point: 34 °F

Location of LehrteLocation

Historic Weather in Lehrte — Graph

°F

Lehrte Temperature Yesterday

Maximum temperature yesterday: 45 °F (at 2:20 PM)
Minimum temperature yesterday: 36 °F (at 6:50 PM)
Average temperature yesterday: 39 °F

High & Low Weather Summary for the Past Weeks

 TemperatureHumidityPressure
High55 °F (Feb 7, 11:50 AM)100% (Jan 30, 7:50 PM)30.27 "Hg (Jan 30, 7:50 PM)
Low32 °F (Feb 12, 4:50 AM)59% (Feb 7, 11:50 AM)28.80 "Hg (Feb 9, 6:50 PM)
Average43 °F84%29.72 "Hg
* Reported Jan 28 5:20 PM — Feb 12 5:20 PM, Lehrte, Weather by CustomWeather, © 2016

Note: Actual official high and low records may vary slightly from our data, if they occured in-between our weather recording intervals... More about our weather records

Advertising

Lehrte Weather History for the Previous 24 Hours

 ConditionsComfort  
Time TempWeatherWind HumidityBarometerVisibility
5:20 PM
Fri, Feb 12
39 °FPartly sunny.6 mph87%29.50 "HgN/A
4:50 PM41 °FPartly sunny.5 mph76%29.50 "HgN/A
4:20 PM41 °FPartly sunny.5 mph76%29.50 "HgN/A
3:50 PM43 °FPartly sunny.8 mph71%29.53 "HgN/A
3:20 PM41 °FPartly sunny.6 mph76%29.53 "HgN/A
2:50 PM41 °FPartly sunny.5 mph81%29.53 "HgN/A
2:20 PM41 °FPartly sunny.3 mph76%29.53 "HgN/A
1:50 PM41 °FScattered clouds.1 mph81%29.53 "HgN/A
1:20 PM41 °FScattered clouds.5 mph81%29.56 "HgN/A
12:50 PM39 °FScattered clouds.5 mph81%29.56 "HgN/A
12:20 PM39 °FScattered clouds.5 mph81%29.56 "HgN/A
11:50 AM39 °FScattered clouds.3 mph87%29.59 "HgN/A
11:20 AM39 °FPartly sunny.6 mph87%29.59 "HgN/A
10:50 AM39 °FPartly sunny.6 mph87%29.59 "HgN/A
10:20 AM39 °FPartly sunny.5 mph87%29.59 "Hg6 mi
9:50 AM37 °FScattered clouds.6 mph93%29.59 "Hg4 mi
9:20 AM36 °FBroken clouds.5 mph93%29.62 "Hg4 mi
8:50 AM34 °FFog.3 mph100%29.62 "Hg2 mi
8:20 AM32 °FIce fog.1 mph100%29.62 "Hg2 mi
7:50 AM34 °FFog.5 mph100%29.62 "Hg2 mi
7:20 AM34 °FFog.5 mph100%29.62 "Hg3 mi
6:50 AM34 °FFog.3 mph93%29.62 "Hg3 mi
6:20 AM34 °FFog.5 mph93%29.62 "Hg3 mi
5:50 AM34 °FFog.5 mph100%29.62 "Hg3 mi
5:20 AM34 °FPassing clouds.3 mph100%29.62 "Hg4 mi
4:50 AM32 °FPassing clouds.5 mph100%29.62 "Hg4 mi
4:20 AM34 °FPassing clouds.3 mph93%29.62 "Hg4 mi
3:50 AM34 °FPassing clouds.6 mph100%29.62 "Hg4 mi
3:20 AM34 °FPassing clouds.7 mph100%29.62 "Hg4 mi
2:50 AM36 °FPassing clouds.6 mph93%29.62 "Hg4 mi
2:20 AM36 °FPartly cloudy.6 mph93%29.62 "Hg5 mi
1:50 AM36 °FPassing clouds.6 mph93%29.62 "Hg5 mi
1:20 AM36 °FPassing clouds.6 mph93%29.62 "Hg5 mi
12:50 AM36 °FPassing clouds.7 mph93%29.62 "HgN/A
12:20 AM36 °FPassing clouds.7 mph93%29.62 "HgN/A
11:50 PM
Thu, Feb 11
37 °FPassing clouds.7 mph87%29.62 "HgN/A
10:50 PM36 °FPassing clouds.7 mph93%29.62 "HgN/A
10:20 PM36 °FPassing clouds.5 mph93%29.62 "HgN/A
9:50 PM37 °FPassing clouds.5 mph87%29.62 "HgN/A
9:20 PM37 °FPassing clouds.7 mph93%29.62 "HgN/A
8:50 PM37 °FPassing clouds.7 mph93%29.62 "HgN/A
8:20 PM37 °FPassing clouds.7 mph93%29.62 "HgN/A
7:50 PM36 °FClear.7 mph100%29.62 "Hg10 mi
7:20 PM36 °FScattered showers. Passing clouds.7 mph100%29.62 "HgN/A
6:50 PM36 °FSprinkles. Passing clouds.13 mph100%29.62 "HgN/A
6:20 PM37 °FSprinkles. Passing clouds.9 mph93%29.62 "HgN/A
Weather by CustomWeather, © 2016

See weather overviewHow to use our weather pages